| time (UTC) | temp F | wind direction | speed MPH | gust MPH | rain 1hr in | rain 24hr in | rain mn in | humidity % | barometer mb |
| 20260503014701 | 55 | 90 | 0.0 | 1.0 | 0.00 | 0.00 | 0.00 | 58 | 1019.4 |
| 20260503014201 | 55 | 90 | 0.0 | 0.0 | 0.00 | 0.00 | 0.00 | 56 | 1019.3 |
| 20260503013701 | 56 | 89 | 0.0 | 0.0 | 0.00 | 0.00 | 0.00 | 56 | 1019.3 |
| 20260503013201 | 56 | 90 | 0.0 | 0.0 | 0.00 | 0.00 | 0.00 | 56 | 1019.3 |
| 20260503012702 | 56 | 90 | 0.0 | 0.0 | 0.00 | 0.00 | 0.00 | 50 | 1019.2 |
| 20260503012201 | 57 | 90 | 0.0 | 0.0 | 0.00 | 0.00 | 0.00 | 53 | 1019.2 |
| 20260503011701 | 58 | 90 | 0.0 | 0.0 | 0.00 | 0.00 | 0.00 | 50 | 1019.0 |
| 20260503010703 | 58 | 90 | 0.0 | 0.0 | 0.00 | 0.00 | 0.00 | 51 | 1018.9 |
| 20260503010202 | 59 | 90 | 0.0 | 0.0 | 0.00 | 0.00 | 0.00 | 53 | 1018.9 |
| 20260503005703 | 59 | 90 | 0.0 | 0.0 | 0.00 | 0.00 | 0.00 | 47 | 1018.9 |
| 20260503005202 | 59 | 90 | 0.0 | 0.0 | 0.00 | 0.00 | 0.00 | 45 | 1018.9 |
| 20260503004657 | 60 | 90 | 0.0 | 1.0 | 0.00 | 0.00 | 0.00 | 43 | 1019.0 |
| 20260503004150 | 60 | 90 | 0.0 | 1.0 | 0.00 | 0.00 | 0.00 | 45 | 1018.9 |
| 20260503003648 | 60 | 90 | 0.0 | 1.0 | 0.00 | 0.00 | 0.00 | 45 | 1018.9 |
| 20260503003148 | 61 | 90 | 0.0 | 2.0 | 0.00 | 0.00 | 0.00 | 42 | 1018.9 |
| 20260503002648 | 61 | 85 | 0.0 | 3.0 | 0.00 | 0.00 | 0.00 | 41 | 1018.9 |
| 20260503002146 | 61 | 51 | 0.0 | 3.0 | 0.00 | 0.00 | 0.00 | 41 | 1018.9 |
| 20260503001147 | 62 | 13 | 1.0 | 3.0 | 0.00 | 0.00 | 0.00 | 40 | 1018.9 |
| 20260503000146 | 62 | 28 | 0.0 | 2.0 | 0.00 | 0.00 | 0.00 | 41 | 1018.9 |
| 20260502235643 | 63 | 20 | 1.0 | 2.0 | 0.00 | 0.00 | 0.00 | 41 | 1018.9 |
| 20260502235144 | 63 | 40 | 1.0 | 4.0 | 0.00 | 0.00 | 0.00 | 41 | 1018.9 |
| 20260502234638 | 63 | 44 | 1.0 | 4.0 | 0.00 | 0.00 | 0.00 | 41 | 1018.9 |
| 20260502234130 | 63 | 13 | 1.0 | 3.0 | 0.00 | 0.00 | 0.00 | 43 | 1018.9 |
| 20260502233129 | 63 | 59 | 1.0 | 7.0 | 0.00 | 0.00 | 0.00 | 38 | 1018.8 |
| 20260502232630 | 64 | 24 | 1.0 | 7.0 | 0.00 | 0.00 | 0.00 | 39 | 1018.9 |
| 20260502232129 | 64 | 64 | 1.0 | 4.0 | 0.00 | 0.00 | 0.00 | 38 | 1019.0 |
| 20260502231629 | 64 | 13 | 1.0 | 3.0 | 0.00 | 0.00 | 0.00 | 38 | 1019.0 |
| 20260502230630 | 64 | 38 | 2.0 | 4.0 | 0.00 | 0.00 | 0.00 | 34 | 1019.2 |
| 20260502230130 | 65 | 44 | 2.0 | 7.0 | 0.00 | 0.00 | 0.00 | 41 | 1019.0 |
| 20260502225626 | 65 | 82 | 1.0 | 7.0 | 0.00 | 0.00 | 0.00 | 40 | 1019.0 |
| 20260502224624 | 65 | 173 | 1.0 | 5.0 | 0.00 | 0.00 | 0.00 | 36 | 1018.9 |
| 20260502224124 | 65 | 82 | 2.0 | 5.0 | 0.00 | 0.00 | 0.00 | 37 | 1018.9 |
| 20260502223622 | 66 | 159 | 2.0 | 5.0 | 0.00 | 0.00 | 0.00 | 38 | 1019.0 |
| 20260502223122 | 66 | 24 | 1.0 | 5.0 | 0.00 | 0.00 | 0.00 | 37 | 1019.0 |
| 20260502222622 | 67 | 128 | 2.0 | 8.0 | 0.00 | 0.00 | 0.00 | 34 | 1019.0 |
| 20260502222122 | 67 | 180 | 2.0 | 8.0 | 0.00 | 0.00 | 0.00 | 38 | 1019.0 |
| 20260502221622 | 68 | 21 | 2.0 | 7.0 | 0.00 | 0.00 | 0.00 | 35 | 1019.0 |
| 20260502221118 | 69 | 0 | 2.0 | 5.0 | 0.00 | 0.00 | 0.00 | 38 | 1018.9 |
| 20260502220617 | 69 | 123 | 2.0 | 5.0 | 0.00 | 0.00 | 0.00 | 34 | 1018.9 |
| 20260502220117 | 69 | 192 | 1.0 | 5.0 | 0.00 | 0.00 | 0.00 | 31 | 1019.0 |
| 20260502215615 | 69 | 74 | 1.0 | 5.0 | 0.00 | 0.00 | 0.00 | 34 | 1019.2 |
| 20260502214616 | 69 | 93 | 2.0 | 5.0 | 0.00 | 0.00 | 0.00 | 35 | 1019.0 |
| 20260502214116 | 69 | 26 | 2.0 | 5.0 | 0.00 | 0.00 | 0.00 | 36 | 1019.2 |
| 20260502213616 | 69 | 29 | 2.0 | 6.0 | 0.00 | 0.00 | 0.00 | 35 | 1019.2 |
| 20260502212606 | 69 | 13 | 2.0 | 6.0 | 0.00 | 0.00 | 0.00 | 33 | 1019.3 |
| 20260502212102 | 69 | 5 | 2.0 | 5.0 | 0.00 | 0.00 | 0.00 | 34 | 1019.3 |
| 20260502211603 | 69 | 94 | 2.0 | 5.0 | 0.00 | 0.00 | 0.00 | 34 | 1019.4 |
| 20260502211101 | 69 | 129 | 2.0 | 9.0 | 0.00 | 0.00 | 0.00 | 33 | 1019.4 |
| 20260502210601 | 69 | 121 | 2.0 | 9.0 | 0.00 | 0.00 | 0.00 | 40 | 1019.5 |
| 20260502210101 | 68 | 125 | 2.0 | 7.0 | 0.00 | 0.00 | 0.00 | 32 | 1019.5 |
| 20260502205101 | 69 | 49 | 3.0 | 8.0 | 0.00 | 0.00 | 0.00 | 34 | 1019.6 |
| 20260502204601 | 69 | 144 | 3.0 | 8.0 | 0.00 | 0.00 | 0.00 | 33 | 1019.6 |
| 20260502203601 | 69 | 109 | 3.0 | 6.0 | 0.00 | 0.00 | 0.00 | 36 | 1019.7 |
| 20260502203101 | 69 | 20 | 2.0 | 7.0 | 0.00 | 0.00 | 0.00 | 31 | 1019.8 |
| 20260502202601 | 70 | 54 | 2.0 | 7.0 | 0.00 | 0.00 | 0.00 | 32 | 1019.8 |
| 20260502202103 | 70 | 46 | 2.0 | 6.0 | 0.00 | 0.00 | 0.00 | 38 | 1019.8 |
| 20260502201602 | 70 | 115 | 2.0 | 8.0 | 0.00 | 0.00 | 0.00 | 34 | 1019.8 |
| 20260502201101 | 70 | 140 | 2.0 | 8.0 | 0.00 | 0.00 | 0.00 | 35 | 1019.8 |
| 20260502200601 | 70 | 122 | 2.0 | 8.0 | 0.00 | 0.00 | 0.00 | 40 | 1019.9 |
| 20260502195552 | 70 | 59 | 3.0 | 9.0 | 0.00 | 0.00 | 0.00 | 40 | 1019.9 |
| 20260502195048 | 70 | 104 | 3.0 | 9.0 | 0.00 | 0.00 | 0.00 | 35 | 1019.9 |
| 20260502194547 | 70 | 107 | 2.0 | 5.0 | 0.00 | 0.00 | 0.00 | 39 | 1019.9 |
| 20260502194047 | 69 | 142 | 2.0 | 7.0 | 0.00 | 0.00 | 0.00 | 39 | 1019.9 |
| 20260502193548 | 69 | 40 | 2.0 | 7.0 | 0.00 | 0.00 | 0.00 | 42 | 1019.9 |
| 20260502193048 | 69 | 125 | 2.0 | 8.0 | 0.00 | 0.00 | 0.00 | 36 | 1019.9 |
| 20260502192547 | 69 | 25 | 2.0 | 8.0 | 0.00 | 0.00 | 0.00 | 35 | 1019.9 |
| 20260502192048 | 70 | 60 | 2.0 | 4.0 | 0.00 | 0.00 | 0.00 | 43 | 1019.9 |
| 20260502190034 | 69 | 63 | 2.0 | 11.0 | 0.00 | 0.00 | 0.00 | 35 | 1020.0 |
| 20260502185533 | 69 | 93 | 2.0 | 11.0 | 0.00 | 0.00 | 0.00 | 36 | 1020.1 |
| 20260502185034 | 69 | 44 | 2.0 | 7.0 | 0.00 | 0.00 | 0.00 | 37 | 1020.0 |
| 20260502184535 | 69 | 63 | 2.0 | 7.0 | 0.00 | 0.00 | 0.00 | 35 | 1020.1 |
| 20260502184034 | 69 | 54 | 1.0 | 5.0 | 0.00 | 0.00 | 0.00 | 37 | 1020.2 |
| 20260502183534 | 69 | 47 | 2.0 | 8.0 | 0.00 | 0.00 | 0.00 | 38 | 1020.3 |
| 20260502183034 | 68 | 52 | 2.0 | 8.0 | 0.00 | 0.00 | 0.00 | 39 | 1020.2 |
| 20260502182532 | 68 | 65 | 2.0 | 7.0 | 0.00 | 0.00 | 0.00 | 42 | 1020.4 |
| 20260502182032 | 68 | 70 | 3.0 | 8.0 | 0.00 | 0.00 | 0.00 | 41 | 1020.4 |
| 20260502181532 | 68 | 55 | 3.0 | 8.0 | 0.00 | 0.00 | 0.00 | 36 | 1020.4 |
| 20260502181032 | 68 | 59 | 2.0 | 6.0 | 0.00 | 0.00 | 0.00 | 39 | 1020.4 |
| 20260502180531 | 68 | 105 | 2.0 | 4.0 | 0.00 | 0.00 | 0.00 | 37 | 1020.4 |
| 20260502164030 | 66 | 151 | 2.0 | 7.0 | 0.00 | 0.00 | 0.00 | 44 | 1021.1 |
| 20260502163529 | 65 | 136 | 2.0 | 7.0 | 0.00 | 0.00 | 0.00 | 42 | 1021.1 |
| 20260502163029 | 65 | 27 | 2.0 | 6.0 | 0.00 | 0.00 | 0.00 | 36 | 1021.1 |
| 20260502162529 | 65 | 5 | 2.0 | 4.0 | 0.00 | 0.00 | 0.00 | 44 | 1020.9 |
| 20260502161030 | 65 | 50 | 1.0 | 5.0 | 0.00 | 0.00 | 0.00 | 44 | 1021.0 |
| 20260502160531 | 65 | 29 | 2.0 | 6.0 | 0.00 | 0.00 | 0.00 | 45 | 1021.0 |
| 20260502152029 | 62 | 66 | 2.0 | 7.0 | 0.00 | 0.00 | 0.00 | 43 | 1021.0 |
| 20260502151528 | 61 | 123 | 2.0 | 7.0 | 0.00 | 0.00 | 0.00 | 50 | 1021.1 |
| 20260502151031 | 61 | 56 | 2.0 | 5.0 | 0.00 | 0.00 | 0.00 | 42 | 1021.0 |
| 20260502150523 | 60 | 145 | 2.0 | 5.0 | 0.00 | 0.00 | 0.00 | 48 | 1021.1 |
| 20260502123505 | 43 | 180 | 0.0 | 1.0 | 0.00 | 0.00 | 0.00 | 94 | 1020.0 |
| 20260502123005 | 42 | 180 | 0.0 | 1.0 | 0.00 | 0.00 | 0.00 | 94 | 1020.0 |
| 20260502122002 | 42 | 180 | 0.0 | 0.0 | 0.00 | 0.00 | 0.00 | 93 | 1019.9 |
| 20260502121501 | 42 | 180 | 0.0 | 0.0 | 0.00 | 0.00 | 0.00 | 93 | 1019.8 |
| 20260502121001 | 42 | 180 | 0.0 | 0.0 | 0.00 | 0.00 | 0.00 | 93 | 1019.8 |
| 20260502120501 | 42 | 180 | 0.0 | 0.0 | 0.00 | 0.00 | 0.00 | 93 | 1019.8 |
| 20260502115001 | 42 | 180 | 0.0 | 0.0 | 0.00 | 0.00 | 0.00 | 93 | 1019.7 |
| 20260502114501 | 42 | 180 | 0.0 | 0.0 | 0.00 | 0.00 | 0.00 | 93 | 1019.6 |
| 20260502114001 | 42 | 180 | 0.0 | 0.0 | 0.00 | 0.00 | 0.00 | 93 | 1019.4 |
| 20260502113502 | 42 | 180 | 0.0 | 0.0 | 0.00 | 0.00 | 0.00 | 93 | 1019.4 |
| 20260502113002 | 42 | 180 | 0.0 | 1.0 | 0.00 | 0.00 | 0.00 | 93 | 1019.3 |
| 20260502112504 | 42 | 180 | 0.0 | 1.0 | 0.00 | 0.00 | 0.00 | 93 | 1019.3 |
| 20260502112001 | 42 | 180 | 0.0 | 1.0 | 0.00 | 0.00 | 0.00 | 93 | 1019.2 |
| 20260502111502 | 42 | 180 | 0.0 | 0.0 | 0.00 | 0.00 | 0.00 | 93 | 1019.2 |
| 20260502111001 | 42 | 180 | 0.0 | 0.0 | 0.00 | 0.00 | 0.00 | 93 | 1019.0 |
| 20260502110501 | 42 | 180 | 0.0 | 0.0 | 0.00 | 0.00 | 0.00 | 93 | 1019.0 |
| 20260502110000 | 42 | 180 | 0.0 | 0.0 | 0.00 | 0.00 | 0.00 | 93 | 1019.0 |
| 20260502105500 | 42 | 180 | 0.0 | 0.0 | 0.00 | 0.00 | 0.00 | 93 | 1018.9 |
| 20260502104957 | 42 | 180 | 0.0 | 1.0 | 0.00 | 0.00 | 0.00 | 93 | 1018.9 |
| 20260502104457 | 42 | 180 | 0.0 | 1.0 | 0.00 | 0.00 | 0.00 | 93 | 1018.8 |
| 20260502103956 | 42 | 180 | 0.0 | 1.0 | 0.00 | 0.00 | 0.00 | 93 | 1018.8 |
| 20260502103456 | 42 | 180 | 0.0 | 1.0 | 0.00 | 0.00 | 0.00 | 92 | 1018.8 |
| 20260502102954 | 41 | 180 | 0.0 | 1.0 | 0.00 | 0.00 | 0.00 | 92 | 1018.8 |
| 20260502102453 | 41 | 180 | 0.0 | 1.0 | 0.00 | 0.00 | 0.00 | 92 | 1018.7 |
| 20260502101951 | 41 | 180 | 0.0 | 0.0 | 0.00 | 0.00 | 0.00 | 92 | 1018.7 |
| 20260502101449 | 41 | 180 | 0.0 | 0.0 | 0.00 | 0.00 | 0.00 | 92 | 1018.8 |
| 20260502100431 | 41 | 180 | 0.0 | 0.0 | 0.00 | 0.00 | 0.00 | 92 | 1018.7 |
| 20260502091431 | 41 | 180 | 0.0 | 0.0 | 0.00 | 0.00 | 0.00 | 91 | 1018.4 |
| 20260502090931 | 41 | 180 | 0.0 | 0.0 | 0.00 | 0.00 | 0.00 | 90 | 1018.4 |
| 20260502090431 | 41 | 180 | 0.0 | 0.0 | 0.00 | 0.00 | 0.00 | 91 | 1018.4 |
| 20260502071418 | 42 | 180 | 0.0 | 0.0 | 0.00 | 0.00 | 0.00 | 87 | 1018.4 |
| 20260502070917 | 42 | 180 | 0.0 | 0.0 | 0.00 | 0.00 | 0.00 | 87 | 1018.3 |
| 20260502070414 | 42 | 180 | 0.0 | 0.0 | 0.00 | 0.00 | 0.00 | 86 | 1018.3 |
| 20260502065913 | 42 | 180 | 0.0 | 0.0 | 0.00 | 0.00 | 0.00 | 86 | 1018.4 |
| 20260502065416 | 42 | 180 | 0.0 | 0.0 | 0.00 | 0.00 | 0.00 | 86 | 1018.3 |
| 20260502064913 | 43 | 180 | 0.0 | 0.0 | 0.00 | 0.00 | 0.00 | 86 | 1018.3 |
| 20260502064415 | 43 | 180 | 0.0 | 0.0 | 0.00 | 0.00 | 0.00 | 86 | 1018.3 |
| 20260502063413 | 43 | 180 | 0.0 | 0.0 | 0.00 | 0.00 | 0.00 | 86 | 1018.3 |
| 20260502062905 | 43 | 180 | 0.0 | 0.0 | 0.00 | 0.00 | 0.00 | 86 | 1018.3 |
| 20260502062404 | 43 | 180 | 0.0 | 0.0 | 0.00 | 0.00 | 0.00 | 86 | 1018.3 |
| 20260502061903 | 43 | 180 | 0.0 | 0.0 | 0.00 | 0.00 | 0.00 | 86 | 1018.3 |
| 20260502061403 | 44 | 180 | 0.0 | 0.0 | 0.00 | 0.00 | 0.00 | 86 | 1018.2 |
| 20260502060903 | 44 | 180 | 0.0 | 0.0 | 0.00 | 0.00 | 0.00 | 85 | 1018.3 |
| 20260502060403 | 44 | 180 | 0.0 | 0.0 | 0.00 | 0.00 | 0.00 | 86 | 1018.3 |
| 20260502055904 | 44 | 180 | 0.0 | 0.0 | 0.00 | 0.00 | 0.00 | 86 | 1018.3 |
| 20260502055404 | 44 | 180 | 0.0 | 0.0 | 0.00 | 0.00 | 0.00 | 85 | 1018.3 |
| 20260502054903 | 44 | 180 | 0.0 | 0.0 | 0.00 | 0.00 | 0.00 | 85 | 1018.4 |
| 20260502054403 | 44 | 180 | 0.0 | 0.0 | 0.00 | 0.00 | 0.00 | 86 | 1018.3 |
| 20260502053405 | 45 | 177 | 0.0 | 0.0 | 0.00 | 0.00 | 0.00 | 86 | 1018.4 |
| 20260502052903 | 45 | 176 | 0.0 | 0.0 | 0.00 | 0.00 | 0.00 | 85 | 1018.4 |
| 20260502052403 | 45 | 175 | 0.0 | 0.0 | 0.00 | 0.00 | 0.00 | 84 | 1018.3 |
| 20260502051902 | 45 | 174 | 0.0 | 0.0 | 0.00 | 0.00 | 0.00 | 83 | 1018.3 |
| 20260502051403 | 45 | 178 | 0.0 | 0.0 | 0.00 | 0.00 | 0.00 | 81 | 1018.4 |
| 20260502050902 | 46 | 180 | 0.0 | 0.0 | 0.00 | 0.00 | 0.00 | 81 | 1018.4 |
| 20260502050403 | 46 | 180 | 0.0 | 0.0 | 0.00 | 0.00 | 0.00 | 81 | 1018.5 |
| 20260502045903 | 46 | 180 | 0.0 | 0.0 | 0.00 | 0.00 | 0.00 | 81 | 1018.5 |
| 20260502045354 | 46 | 180 | 0.0 | 0.0 | 0.00 | 0.00 | 0.00 | 80 | 1018.5 |
| 20260502044848 | 46 | 180 | 0.0 | 0.0 | 0.00 | 0.00 | 0.00 | 80 | 1018.5 |
| 20260502043344 | 47 | 180 | 0.0 | 0.0 | 0.00 | 0.00 | 0.00 | 79 | 1018.4 |
| 20260502042842 | 47 | 180 | 0.0 | 0.0 | 0.00 | 0.00 | 0.00 | 78 | 1018.4 |
| 20260502042342 | 47 | 180 | 0.0 | 0.0 | 0.00 | 0.00 | 0.00 | 78 | 1018.4 |
| 20260502041843 | 47 | 180 | 0.0 | 0.0 | 0.00 | 0.00 | 0.00 | 78 | 1018.3 |
| 20260502040841 | 48 | 180 | 0.0 | 0.0 | 0.00 | 0.00 | 0.00 | 75 | 1018.4 |
| 20260502035334 | 49 | 180 | 0.0 | 0.0 | 0.00 | 0.00 | 0.00 | 72 | 1018.5 |
| 20260502034834 | 49 | 180 | 0.0 | 0.0 | 0.00 | 0.00 | 0.00 | 72 | 1018.5 |
| 20260502033832 | 49 | 180 | 0.0 | 0.0 | 0.00 | 0.00 | 0.00 | 71 | 1018.5 |
| 20260502033331 | 49 | 180 | 0.0 | 0.0 | 0.00 | 0.00 | 0.00 | 71 | 1018.5 |
| 20260502032331 | 50 | 178 | 0.0 | 0.0 | 0.00 | 0.00 | 0.00 | 67 | 1018.6 |
| 20260502031831 | 50 | 171 | 0.0 | 0.0 | 0.00 | 0.00 | 0.00 | 67 | 1018.6 |
| 20260502031325 | 50 | 171 | 0.0 | 0.0 | 0.00 | 0.00 | 0.00 | 69 | 1018.4 |
| 20260502030817 | 50 | 171 | 0.0 | 0.0 | 0.00 | 0.00 | 0.00 | 72 | 1018.4 |
| 20260502030312 | 51 | 172 | 0.0 | 0.0 | 0.00 | 0.00 | 0.00 | 70 | 1018.5 |
| 20260502025806 | 51 | 172 | 0.0 | 1.0 | 0.00 | 0.00 | 0.00 | 68 | 1018.5 |
| 20260502025306 | 51 | 172 | 0.0 | 1.0 | 0.00 | 0.00 | 0.00 | 69 | 1018.5 |
| 20260502024803 | 51 | 173 | 0.0 | 1.0 | 0.00 | 0.00 | 0.00 | 69 | 1018.5 |
| 20260502024303 | 51 | 173 | 0.0 | 1.0 | 0.00 | 0.00 | 0.00 | 69 | 1018.4 |
| 20260502023303 | 52 | 173 | 0.0 | 0.0 | 0.00 | 0.00 | 0.00 | 65 | 1018.3 |
| 20260502022802 | 53 | 173 | 0.0 | 0.0 | 0.00 | 0.00 | 0.00 | 65 | 1018.3 |
| 20260502022306 | 53 | 173 | 0.0 | 0.0 | 0.00 | 0.00 | 0.00 | 67 | 1018.3 |
| 20260502021801 | 53 | 173 | 0.0 | 0.0 | 0.00 | 0.00 | 0.00 | 67 | 1018.2 |
| 20260502020801 | 54 | 174 | 0.0 | 0.0 | 0.00 | 0.00 | 0.00 | 67 | 1018.2 |
| 20260502020301 | 54 | 174 | 0.0 | 0.0 | 0.00 | 0.00 | 0.00 | 67 | 1018.1 |
| 20260502015801 | 54 | 175 | 0.0 | 0.0 | 0.00 | 0.00 | 0.00 | 66 | 1018.1 |